0WD NZWS-NZCH

Flight info

Callsign 0WD
Flight time 0h 37m
Altitude 10000
Route WS DCT ESDAK DCT KIDAL
Aircraft PC12/L-FAA/S

Departure

Time 2026-04-28 21:26
Airport Westport Airport (NZWS)

Arrival

Time 2026-04-28 22:03
Airport Christchurch International Airport (NZCH)
Time Latitude Longitude Altitude Speed Heading
2026-04-28 21:18 -41.73961 171.57866 16 ft 0 kts 324°
2026-04-28 21:22 -41.73945 171.57851 16 ft 7 kts 326°
2026-04-28 21:23 -41.73886 171.57794 17 ft 13 kts 329°
2026-04-28 21:23 -41.73810 171.57695 16 ft 18 kts 253°
2026-04-28 21:23 -41.73889 171.57544 17 ft 21 kts 238°
2026-04-28 21:23 -41.73977 171.57359 16 ft 23 kts 235°
2026-04-28 21:24 -41.73997 171.57271 17 ft 3 kts 45°
2026-04-28 21:24 -41.74001 171.57297 17 ft 5 kts 110°
2026-04-28 21:24 -41.73997 171.57332 16 ft 0 kts 54°
2026-04-28 21:25 -41.73991 171.57342 16 ft 14 kts 56°
2026-04-28 21:25 -41.73774 171.57771 17 ft 92 kts 57°
2026-04-28 21:26 -41.73365 171.58583 264 ft 115 kts 54°
2026-04-28 21:26 -41.72988 171.59575 493 ft 142 kts 72°
2026-04-28 21:26 -41.72922 171.60925 826 ft 159 kts 98°
2026-04-28 21:26 -41.73420 171.62224 1204 ft 168 kts 140°
2026-04-28 21:27 -41.74498 171.62727 1562 ft 176 kts 184°
2026-04-28 21:27 -41.75574 171.62178 1919 ft 180 kts 214°
2026-04-28 21:27 -41.76600 171.61188 2295 ft 186 kts 219°
2026-04-28 21:27 -41.77627 171.60130 2675 ft 190 kts 219°
2026-04-28 21:28 -41.78666 171.59052 3047 ft 193 kts 219°
2026-04-28 21:28 -41.79740 171.57959 3428 ft 195 kts 215°
2026-04-28 21:28 -41.80936 171.57165 3806 ft 197 kts 202°
2026-04-28 21:28 -41.82225 171.56682 4178 ft 199 kts 191°
2026-04-28 21:29 -41.83555 171.56850 4558 ft 203 kts 167°
2026-04-28 21:29 -41.84853 171.57475 4929 ft 204 kts 160°
2026-04-28 21:29 -41.86108 171.58254 5297 ft 204 kts 158°
2026-04-28 21:29 -41.87362 171.59094 5669 ft 204 kts 157°
2026-04-28 21:30 -41.88609 171.59946 6038 ft 203 kts 158°
2026-04-28 21:30 -41.89848 171.60794 6409 ft 202 kts 158°
2026-04-28 21:30 -41.91059 171.61626 6769 ft 201 kts 158°
2026-04-28 21:30 -41.92257 171.62448 7129 ft 200 kts 159°
2026-04-28 21:31 -41.93481 171.63287 7500 ft 199 kts 159°
2026-04-28 21:31 -41.94660 171.64096 7857 ft 198 kts 159°
2026-04-28 21:31 -41.95847 171.64912 8217 ft 198 kts 159°
2026-04-28 21:31 -41.97025 171.65723 8576 ft 196 kts 160°
2026-04-28 21:32 -41.98241 171.66560 8946 ft 194 kts 160°
2026-04-28 21:32 -41.99412 171.67369 9309 ft 191 kts 160°
2026-04-28 21:32 -42.00563 171.68162 9668 ft 187 kts 161°
2026-04-28 21:32 -42.01698 171.68942 10026 ft 184 kts 161°
2026-04-28 21:33 -42.02837 171.69724 10286 ft 187 kts 161°
2026-04-28 21:33 -42.04024 171.70529 10317 ft 202 kts 160°
2026-04-28 21:33 -42.05318 171.71417 10318 ft 214 kts 159°
2026-04-28 21:33 -42.06646 171.72334 10313 ft 223 kts 159°
2026-04-28 21:34 -42.07450 171.72893 10311 ft 228 kts 159°
2026-04-28 21:34 -42.08393 171.73546 10311 ft 231 kts 158°
2026-04-28 21:34 -42.09833 171.74545 10309 ft 236 kts 158°
2026-04-28 21:34 -42.11274 171.75543 10318 ft 239 kts 158°
2026-04-28 21:35 -42.12699 171.76529 10321 ft 241 kts 158°
2026-04-28 21:35 -42.14106 171.77504 10331 ft 243 kts 158°
2026-04-28 21:35 -42.15533 171.78493 10336 ft 244 kts 158°
2026-04-28 21:35 -42.17002 171.79511 10329 ft 245 kts 158°
2026-04-28 21:36 -42.18493 171.80543 10321 ft 246 kts 158°
2026-04-28 21:36 -42.19998 171.81586 10314 ft 246 kts 158°
2026-04-28 21:36 -42.21529 171.82487 10304 ft 241 kts 169°
2026-04-28 21:36 -42.23027 171.83392 10316 ft 246 kts 154°
2026-04-28 21:37 -42.24497 171.84554 10305 ft 247 kts 154°
2026-04-28 21:37 -42.25957 171.85677 10297 ft 246 kts 155°
2026-04-28 21:37 -42.27353 171.86713 10298 ft 246 kts 156°
2026-04-28 21:37 -42.28773 171.87747 10302 ft 246 kts 157°
2026-04-28 21:38 -42.30214 171.88780 10303 ft 246 kts 157°
2026-04-28 21:38 -42.31664 171.89815 10300 ft 246 kts 157°
2026-04-28 21:38 -42.33168 171.90881 10299 ft 246 kts 157°
2026-04-28 21:38 -42.34660 171.91943 10297 ft 246 kts 157°
2026-04-28 21:39 -42.36158 171.93004 10292 ft 246 kts 157°
2026-04-28 21:39 -42.37660 171.94069 10289 ft 246 kts 157°
2026-04-28 21:39 -42.39140 171.95120 10289 ft 245 kts 156°
2026-04-28 21:39 -42.40638 171.96185 10279 ft 245 kts 156°
2026-04-28 21:40 -42.42130 171.97244 10282 ft 244 kts 156°
2026-04-28 21:40 -42.43622 171.98306 10279 ft 244 kts 156°
2026-04-28 21:40 -42.45100 171.99361 10282 ft 244 kts 156°
2026-04-28 21:40 -42.46590 172.00421 10274 ft 244 kts 156°
2026-04-28 21:41 -42.48077 172.01479 10278 ft 244 kts 156°
2026-04-28 21:41 -42.49542 172.02524 10272 ft 244 kts 156°
2026-04-28 21:41 -42.51029 172.03583 10270 ft 244 kts 156°
2026-04-28 21:41 -42.52528 172.04652 10270 ft 244 kts 156°
2026-04-28 21:42 -42.54010 172.05713 10264 ft 244 kts 156°
2026-04-28 21:42 -42.55503 172.06778 10255 ft 245 kts 155°
2026-04-28 21:42 -42.56988 172.07840 10252 ft 245 kts 155°
2026-04-28 21:42 -42.58468 172.08902 10250 ft 245 kts 156°
2026-04-28 21:43 -42.59971 172.09975 10241 ft 245 kts 156°
2026-04-28 21:43 -42.61409 172.11003 10240 ft 245 kts 156°
2026-04-28 21:43 -42.62896 172.12067 10228 ft 245 kts 155°
2026-04-28 21:43 -42.64374 172.13126 10223 ft 246 kts 155°
2026-04-28 21:44 -42.65889 172.14212 10225 ft 247 kts 155°
2026-04-28 21:44 -42.67382 172.15282 10219 ft 248 kts 155°
2026-04-28 21:44 -42.68868 172.16347 10217 ft 248 kts 155°
2026-04-28 21:44 -42.70391 172.17442 10213 ft 249 kts 155°
2026-04-28 21:45 -42.71880 172.18514 10209 ft 249 kts 155°
2026-04-28 21:45 -42.73389 172.19598 10209 ft 249 kts 155°
2026-04-28 21:45 -42.74891 172.20680 10207 ft 249 kts 155°
2026-04-28 21:45 -42.76411 172.21776 10212 ft 249 kts 155°
2026-04-28 21:46 -42.77931 172.22870 10210 ft 250 kts 155°
2026-04-28 21:46 -42.79466 172.23978 10214 ft 250 kts 155°
2026-04-28 21:46 -42.80999 172.25082 10214 ft 250 kts 155°
2026-04-28 21:46 -42.82517 172.26175 10211 ft 250 kts 155°
2026-04-28 21:47 -42.84034 172.27266 10204 ft 251 kts 154°
2026-04-28 21:47 -42.85575 172.28383 10208 ft 250 kts 154°
2026-04-28 21:47 -42.86847 172.29958 10221 ft 256 kts 122°
2026-04-28 21:47 -42.87625 172.32098 10199 ft 253 kts 133°
2026-04-28 21:48 -42.89074 172.33174 10204 ft 244 kts 171°
2026-04-28 21:48 -42.90744 172.33434 10214 ft 244 kts 175°
2026-04-28 21:48 -42.92410 172.33719 10225 ft 244 kts 174°
2026-04-28 21:48 -42.94087 172.34059 10220 ft 245 kts 173°
2026-04-28 21:49 -42.95706 172.34419 10218 ft 245 kts 172°
2026-04-28 21:49 -42.97362 172.34805 10215 ft 245 kts 172°
2026-04-28 21:49 -42.99040 172.35208 10207 ft 246 kts 172°
2026-04-28 21:49 -43.00705 172.35612 10206 ft 246 kts 172°
2026-04-28 21:50 -43.02388 172.36026 10208 ft 246 kts 172°
2026-04-28 21:50 -43.04047 172.36435 10209 ft 246 kts 172°
2026-04-28 21:50 -43.05736 172.36850 10210 ft 246 kts 172°
2026-04-28 21:50 -43.07385 172.37257 10213 ft 246 kts 172°
2026-04-28 21:51 -43.09043 172.37822 10143 ft 250 kts 166°
2026-04-28 21:51 -43.10706 172.38490 10020 ft 254 kts 165°
2026-04-28 21:51 -43.12404 172.39182 10007 ft 252 kts 165°
2026-04-28 21:51 -43.14065 172.39851 10003 ft 251 kts 166°
2026-04-28 21:52 -43.15736 172.40526 9890 ft 254 kts 166°
2026-04-28 21:52 -43.17419 172.41191 9605 ft 255 kts 166°
2026-04-28 21:52 -43.19117 172.41876 9317 ft 254 kts 166°
2026-04-28 21:52 -43.20790 172.42545 9022 ft 253 kts 166°
2026-04-28 21:53 -43.22446 172.43214 8731 ft 252 kts 166°
2026-04-28 21:53 -43.24119 172.43889 8439 ft 252 kts 166°
2026-04-28 21:53 -43.25820 172.44157 8129 ft 247 kts 192°
2026-04-28 21:53 -43.27464 172.43596 7840 ft 246 kts 197°
2026-04-28 21:54 -43.29088 172.42963 7529 ft 245 kts 198°
2026-04-28 21:54 -43.30730 172.42291 7208 ft 245 kts 199°
2026-04-28 21:54 -43.32332 172.41631 6899 ft 244 kts 199°
2026-04-28 21:54 -43.33969 172.40955 6583 ft 244 kts 199°
2026-04-28 21:55 -43.35583 172.40286 6276 ft 243 kts 199°
2026-04-28 21:55 -43.37168 172.39625 5963 ft 240 kts 199°
2026-04-28 21:55 -43.38761 172.38974 5641 ft 238 kts 199°
2026-04-28 21:55 -43.40330 172.38351 5316 ft 238 kts 197°
2026-04-28 21:56 -43.41928 172.37845 4996 ft 238 kts 195°
2026-04-28 21:56 -43.43512 172.37338 4683 ft 238 kts 195°
2026-04-28 21:56 -43.45102 172.36822 4360 ft 238 kts 195°
2026-04-28 21:56 -43.46699 172.36304 4033 ft 236 kts 196°
2026-04-28 21:57 -43.48259 172.35794 3711 ft 232 kts 195°
2026-04-28 21:57 -43.49826 172.35294 3381 ft 229 kts 195°
2026-04-28 21:57 -43.51370 172.34798 3102 ft 225 kts 195°
2026-04-28 21:57 -43.52857 172.34320 2851 ft 223 kts 195°
2026-04-28 21:58 -43.54401 172.33835 2603 ft 229 kts 192°
2026-04-28 21:58 -43.55961 172.34132 2367 ft 235 kts 155°
2026-04-28 21:58 -43.57328 172.35338 2135 ft 237 kts 138°
2026-04-28 21:58 -43.58334 172.36957 1997 ft 212 kts 126°
2026-04-28 21:59 -43.59088 172.38525 1979 ft 186 kts 118°
2026-04-28 21:59 -43.59236 172.40071 1988 ft 161 kts 71°
2026-04-28 21:59 -43.58801 172.41315 1985 ft 141 kts 55°
2026-04-28 22:00 -43.57668 172.43076 2021 ft 121 kts 36°
2026-04-28 22:00 -43.57056 172.43799 1984 ft 122 kts 35°
2026-04-28 22:00 -43.56416 172.44540 1845 ft 130 kts 35°
2026-04-28 22:00 -43.55741 172.45323 1684 ft 128 kts 36°
2026-04-28 22:01 -43.55107 172.46060 1525 ft 123 kts 34°
2026-04-28 22:01 -43.54469 172.46793 1367 ft 124 kts 36°
2026-04-28 22:01 -43.53820 172.47540 1205 ft 125 kts 36°
2026-04-28 22:01 -43.53164 172.48297 1043 ft 127 kts 37°
2026-04-28 22:02 -43.52497 172.49068 874 ft 129 kts 37°
2026-04-28 22:02 -43.51814 172.49855 701 ft 129 kts 38°
2026-04-28 22:02 -43.51155 172.50618 526 ft 114 kts 39°
2026-04-28 22:02 -43.50647 172.51211 377 ft 87 kts 37°
2026-04-28 22:03 -43.50178 172.51749 298 ft 92 kts 37°
2026-04-28 22:03 -43.49684 172.52307 183 ft 90 kts 39°
2026-04-28 22:03 -43.49266 172.52788 118 ft 58 kts 40°
2026-04-28 22:03 -43.49039 172.53049 111 ft 35 kts 39°
2026-04-28 22:04 -43.48868 172.53244 108 ft 26 kts 39°
2026-04-28 22:04 -43.48769 172.53307 109 ft 13 kts 349°
2026-04-28 22:04 -43.48701 172.53209 108 ft 15 kts 308°
2026-04-28 22:04 -43.48625 172.53082 110 ft 18 kts 310°
2026-04-28 22:05 -43.48544 172.52956 113 ft 11 kts 336°
2026-04-28 22:05 -43.48494 172.52979 112 ft 7 kts 40°
2026-04-28 22:05 -43.48499 172.53036 112 ft 4 kts 169°
2026-04-28 22:05 -43.48500 172.53036 112 ft 0 kts 169°